Theta_e
306 305 304 300 302 302 302 299 295 288 289 292 292 293 291 291 291 289 288 292 291 291 291 291 291 291 291 291 291 292 292 292 292 293 293 294 295 295
305 304 303 299 301 302 301 299 297 294 289 293 293 291 292 291 291 287 288 291 290 290 289 289 289 289 289 289 289 289 289 290 290 290 291 292 293 293
302 301 300 299 300 301 299 299 298 296 291 293 292 290 290 289 288 286 288 286 287 289 288 288 288 287 287 287 287 287 287 287 287 288 288 290 291 291
298 298 297 299 298 298 300 299 298 296 293 290 290 290 289 289 287 286 286 287 286 289 288 288 287 287 287 287 286 286 285 285 285 286 286 287 288 289
298 297 296 296 295 296 297 297 297 297 294 292 290 290 289 288 286 287 286 284 286 289 288 288 288 287 286 285 285 285 285 285 284 284 284 285 286 286
296 295 295 296 295 295 296 296 294 293 292 291 289 287 287 288 288 285 282 282 282 286 287 287 287 287 285 285 284 284 283 284 284 284 284 283 284 285
293 294 294 296 296 295 296 295 293 291 290 289 288 287 286 286 285 285 282 282 281 280 282 283 283 281 281 283 282 282 282 283 283 283 283 284 283 284
291 292 293 295 294 294 293 293 293 290 289 288 288 286 286 286 286 286 284 281 279 281 279 280 283 279 279 279 282 281 281 282 282 282 283 284 283 283
288 288 290 292 291 289 288 288 289 290 291 291 288 288 286 286 286 285 284 282 279 280 282 279 280 277 278 281 282 281 281 281 282 282 282 283 283 284
286 287 287 288 287 286 285 284 284 285 286 287 290 288 286 288 288 287 286 280 279 280 281 279 277 275 278 278 283 281 281 281 281 282 282 282 282 282
285 286 286 286 288 289 285 281 280 282 287 289 288 288 288 289 288 284 282 281 278 276 274 278 275 273 274 272 277 282 281 281 281 281 282 282 281 280
285 285 287 287 287 286 283 281 279 277 280 279 281 281 283 285 286 283 283 281 277 274 275 276 276 277 272 274 275 274 276 281 282 282 282 282 280 275
283 283 284 287 286 286 284 282 279 276 276 278 278 277 277 277 277 278 276 282 276 274 275 277 274 272 272 273 279 273 272 271 271 274 281 281 281 276
282 283 285 286 286 284 282 282 280 277 277 277 276 274 275 276 274 276 274 274 274 276 277 277 273 274 272 272 272 272 270 270 270 270 270 277 281 279
283 284 285 285 285 283 283 282 279 278 277 276 276 272 272 275 276 276 277 278 278 278 278 276 276 275 274 270 271 269 270 272 270 270 269 270 272 271
283 283 282 281 282 281 281 279 279 279 278 277 278 278 278 277 276 276 275 276 275 275 279 278 278 278 275 274 273 269 270 270 269 270 271 272 273 272
281 280 279 279 279 279 279 278 278 279 279 278 280 279 278 278 277 277 277 277 276 274 273 276 279 279 276 274 272 272 270 270 271 273 273 271 272 273
279 277 277 277 277 277 277 276 276 278 278 279 280 279 279 278 278 278 279 278 277 276 275 275 275 275 276 276 277 271 269 270 271 274 273 269 269 272
278 277 277 277 277 277 277 277 278 278 279 279 280 280 280 279 278 279 279 279 278 278 277 277 276 274 270 267 273 277 269 270 270 269 272 270 267 269
279 278 278 279 278 278 278 277 278 278 277 277 278 279 279 279 278 279 279 277 277 278 277 277 276 276 273 271 269 270 277 270 268 266 267 268 270 275
279 279 280 279 279 279 279 279 278 277 277 276 278 278 277 278 278 277 277 276 276 278 276 275 277 276 276 274 268 266 270 276 274 269 268 264 264 267
279 279 279 279 278 279 279 279 279 279 278 278 277 279 279 278 276 276 276 275 276 276 276 274 275 275 274 272 268 262 269 269 274 275 274 271 263 258
278 277 276 279 279 279 278 278 278 278 278 278 278 278 279 277 277 276 275 275 276 275 275 273 274 273 273 272 269 267 267 264 270 269 270 275 274 274
Wind_Speed
19 16 15 7 9 12 14 16 15 11 9 6 4 11 10 12 13 6 6 13 12 14 13 13 13 12 13 13 15 16 16 16 15 16 17 18 20 21
15 17 15 7 10 11 15 13 9 8 9 5 3 12 13 11 16 7 7 13 13 14 13 13 13 13 13 14 15 15 15 15 16 17 18 20 21 23
19 20 17 15 10 10 12 11 8 8 9 8 4 12 15 15 13 8 9 5 6 14 13 13 13 13 14 14 15 15 13 13 15 16 19 20 21 23
20 20 18 12 15 13 11 11 8 7 10 16 11 9 13 14 13 11 9 9 5 14 14 13 12 13 13 13 13 13 11 11 12 13 17 19 21 22
20 20 18 17 11 10 10 10 9 9 13 12 9 8 10 12 12 10 9 7 8 16 15 13 12 12 13 12 12 12 11 11 10 11 13 16 19 20
16 18 17 17 16 14 12 12 11 11 12 11 11 11 11 10 9 10 8 6 8 8 10 9 10 12 11 11 10 9 9 9 12 12 13 13 16 19
15 15 14 15 16 12 8 11 12 11 11 12 11 11 10 11 14 8 9 7 3 3 5 5 4 4 4 10 8 7 8 10 12 11 11 13 13 17
17 16 16 19 16 16 11 13 15 16 13 11 10 14 14 12 9 9 8 9 5 2 4 5 6 5 4 3 8 6 7 8 10 12 13 15 7 14
17 16 13 10 14 13 18 16 13 10 15 13 14 14 13 14 12 11 8 5 3 3 5 3 4 4 4 6 8 6 5 6 8 12 12 15 8 11
14 15 15 16 14 14 14 11 10 8 6 5 10 9 7 11 12 9 10 5 5 3 2 3 2 3 3 3 8 6 3 2 6 9 11 12 13 14
11 13 14 13 19 21 13 12 10 9 10 15 16 16 16 15 10 9 8 9 3 2 2 4 2 3 2 2 2 6 4 1 0 4 8 9 12 13
10 12 16 13 19 20 13 13 11 7 11 10 10 12 13 12 11 5 9 9 4 1 4 4 3 4 1 2 4 2 2 5 2 3 5 6 8 4
8 8 7 17 17 17 16 9 8 9 8 10 9 7 6 7 5 4 4 7 4 2 4 4 3 3 2 2 2 2 2 2 2 2 3 4 6 8
8 7 9 17 18 18 12 20 21 11 7 7 7 5 6 5 4 5 5 4 4 4 7 3 4 4 4 3 3 1 1 3 2 1 1 3 7 9
7 12 20 19 18 14 21 22 13 8 7 7 7 3 3 5 6 5 6 8 9 6 3 4 4 4 3 3 4 3 3 3 2 2 2 2 3 3
15 12 11 11 11 11 12 10 5 6 7 7 6 6 7 5 5 3 4 4 4 2 3 4 4 3 2 1 4 2 2 2 2 2 2 2 3 3
13 9 8 7 8 6 6 4 4 5 6 4 7 7 7 6 5 4 5 5 3 4 2 1 2 3 2 3 2 2 2 2 2 3 1 2 1 4
9 9 7 7 7 7 7 3 2 5 4 6 7 7 7 7 7 6 6 5 4 5 5 4 3 2 2 1 4 2 0 2 1 2 1 2 1 0
8 7 7 7 6 6 6 5 5 3 3 5 7 7 6 6 7 6 6 6 4 5 5 6 6 4 3 3 1 2 3 1 2 2 1 2 2 2
6 7 7 7 8 7 7 6 4 4 2 3 6 6 5 5 3 6 7 4 3 2 3 6 6 6 5 6 4 3 6 3 3 2 0 1 2 2
5 5 6 6 7 7 6 6 6 5 4 4 4 3 4 3 4 4 4 4 4 2 2 5 7 6 4 5 3 1 1 3 4 4 2 2 1 2
4 6 5 5 6 6 6 6 6 6 5 4 3 3 4 4 2 2 3 2 3 3 2 4 5 6 3 3 3 3 1 1 2 5 6 6 5 2
4 4 3 5 5 5 5 4 4 4 5 5 4 3 3 3 3 2 2 3 3 2 3 3 4 2 2 3 4 3 4 3 2 2 2 10 10 6
Wind_Direction
197 185 183 181 164 162 158 163 154 150 185 209 143 161 148 128 144 145 147 150 134 121 113 105 97 86 79 70 63 56 48 42 35 29 26 26 25 25
181 183 177 170 158 161 160 159 149 128 157 170 159 151 138 132 143 156 155 150 139 127 115 109 100 93 83 73 67 58 50 41 35 28 26 25 25 27
172 176 175 153 144 147 153 149 144 128 148 132 142 145 133 140 142 159 149 160 142 136 128 116 108 97 88 77 68 58 46 40 38 32 29 27 27 27
164 163 156 155 141 138 154 157 148 146 128 144 145 159 140 138 147 155 160 164 158 146 136 129 114 103 90 79 74 69 57 44 35 33 32 27 26 27
161 158 152 146 132 129 137 136 137 140 145 148 145 146 145 149 157 159 170 159 172 159 146 140 131 113 96 82 67 54 40 40 40 31 37 27 27 27
151 150 142 143 139 132 135 124 136 131 138 143 144 152 155 162 158 168 164 176 168 165 160 150 145 127 107 91 74 58 43 36 32 26 29 29 24 26
131 129 127 129 136 136 146 146 144 143 144 143 141 151 161 166 181 161 167 178 156 155 150 168 155 110 109 95 81 60 39 38 36 31 30 25 18 24
130 127 122 131 144 157 149 160 163 147 152 140 161 169 172 171 174 171 159 162 173 183 133 182 157 144 137 145 102 78 49 41 36 30 29 15 35 29
135 132 139 140 138 128 109 100 91 127 150 158 171 180 166 172 168 170 181 156 152 176 133 154 144 135 178 126 121 97 69 39 36 33 33 26 71 26
128 135 134 147 138 128 111 98 81 75 110 139 158 159 147 159 173 179 161 115 77 61 105 137 147 143 144 175 148 131 103 47 35 33 32 38 39 38
112 126 130 124 131 124 113 107 96 82 88 123 125 130 141 147 150 132 150 144 117 200 292 113 178 106 148 205 223 168 192 324 359 15 18 37 40 46
108 113 118 131 133 132 129 133 129 135 120 100 97 86 93 99 93 135 155 154 132 80 234 108 124 130 211 208 167 198 205 277 3 28 16 51 59 53
109 113 117 137 128 132 137 139 131 131 104 112 109 100 86 87 81 70 91 150 133 119 205 117 143 137 108 147 155 200 173 277 315 319 345 24 88 95
115 115 125 133 131 129 112 124 129 112 108 104 112 106 109 105 82 84 70 74 63 141 150 124 134 147 143 143 171 256 240 251 162 248 302 308 105 97
117 121 130 128 118 112 126 133 128 127 129 127 133 121 107 113 106 88 75 78 74 82 108 97 125 135 130 156 162 174 134 228 188 195 276 231 202 152
117 113 100 94 95 113 125 129 127 137 139 137 135 118 120 130 130 123 127 126 97 73 88 100 116 124 129 153 121 147 202 179 161 221 239 294 78 86
122 113 112 113 115 117 123 118 122 130 140 129 142 142 145 148 152 155 147 156 134 148 121 67 122 104 113 139 99 161 196 212 184 188 175 304 64 148
123 127 128 131 133 136 144 131 86 146 147 138 149 154 161 166 163 171 168 173 157 164 161 159 153 101 73 329 177 158 254 154 167 184 159 143 79 218
127 139 139 144 144 143 151 162 167 157 127 139 157 165 162 164 172 177 185 180 182 165 172 162 172 150 148 186 341 151 155 164 114 36 85 87 145 239
130 140 148 150 154 157 163 166 146 152 127 135 150 154 158 160 155 175 178 153 145 149 147 178 181 191 170 184 175 238 198 135 125 168 127 351 252 322
137 136 148 146 151 153 148 151 151 152 152 140 144 149 152 134 167 167 156 149 144 160 206 174 207 172 112 94 65 305 232 176 155 151 153 103 349 10
107 122 129 124 124 132 139 144 151 163 163 148 137 139 147 149 122 99 133 152 156 152 132 121 129 135 119 129 167 169 166 356 232 179 177 175 160 180
107 106 109 120 126 131 129 135 137 136 144 133 129 132 140 148 131 147 162 150 140 125 131 151 160 129 149 143 151 146 161 191 181 175 262 230 222 220